Location: Consuma
(43.7833°N, 11.5833°E)
Time: 05:53:58
(UTC+00:00)

Meteor 2-3 Rocket - Pass Details

Date: 17 February 2020
Orbit: 842 x 885 km, 81.3° (Epoch: 28 March)

Event Time Altitude Azimuth Distance (km) Brightness Sun altitude
Rises 04:59:03 0° 341° (NNW) 3,462 6.7 -13.5°
Reaches altitude 10° 05:01:39 10° 333° (NNW) 2,527 5.9 -13.1°
Maximum altitude 05:06:49 36° 269° (W) 1,371 4.3 -12.1°
Drops below altitude 10° 05:11:59 10° 205° (SSW) 2,532 6.0 -11.2°
Sets 05:14:37 0° 197° (SSW) 3,470 6.8 -10.7°
